Time,TemperatureF,DewpointF,PressureIn,WindDirection,WindDirectionDegrees,WindSpeedMPH,WindSpeedGustMPH,Humidity,HourlyPrecipIn,Conditions,Clouds,dailyrainin,SoftwareType,DateUTC
2013-07-16 00:01:00,78.8,72.2,29.82,East,90,0.0,0.0,80,0.00,,,0.00,WUHU216HW,2013-07-16 05:01:00,
2013-07-16 00:06:00,78.5,71.8,29.81,ESE,113,0.0,0.0,80,0.00,,,0.00,WUHU216HW,2013-07-16 05:06:00,
2013-07-16 00:11:00,78.3,71.6,29.82,East,90,0.0,0.0,80,0.00,,,0.00,WUHU216HW,2013-07-16 05:11:00,
2013-07-16 00:16:00,78.1,71.5,29.82,East,90,0.0,0.0,80,0.00,,,0.00,WUHU216HW,2013-07-16 05:16:00,
2013-07-16 00:21:00,78.1,71.5,29.82,East,90,0.0,0.0,80,0.00,,,0.00,WUHU216HW,2013-07-16 05:21:00,
2013-07-16 00:26:00,79.6,73.3,29.82,East,90,0.0,0.0,81,0.00,,,0.00,WUHU216HW,2013-07-16 05:26:00,
2013-07-16 00:31:00,81.0,73.5,29.82,East,90,0.0,0.0,78,0.00,,,0.00,WUHU216HW,2013-07-16 05:31:00,
2013-07-16 00:36:00,80.8,73.0,29.82,East,90,0.0,0.0,77,0.00,,,0.00,WUHU216HW,2013-07-16 05:36:00,
2013-07-16 00:41:00,80.1,72.3,29.82,East,90,0.0,0.0,77,0.00,,,0.00,WUHU216HW,2013-07-16 05:41:00,
2013-07-16 00:46:00,79.6,71.7,29.82,East,90,0.0,0.0,77,0.00,,,0.00,WUHU216HW,2013-07-16 05:46:00,
2013-07-16 00:51:00,79.0,71.6,29.82,East,90,0.0,0.0,78,0.00,,,0.00,WUHU216HW,2013-07-16 05:51:00,
2013-07-16 00:56:00,78.7,71.2,29.81,East,90,0.0,0.0,78,0.00,,,0.00,WUHU216HW,2013-07-16 05:56:00,
2013-07-16 01:01:00,78.3,70.8,29.81,East,90,0.0,0.0,78,0.00,,,0.00,WUHU216HW,2013-07-16 06:01:00,
2013-07-16 01:06:00,78.1,71.1,29.81,ESE,113,0.0,0.0,79,0.00,,,0.00,WUHU216HW,2013-07-16 06:06:00,
2013-07-16 01:11:00,77.8,71.1,29.81,East,90,0.0,0.0,80,0.00,,,0.00,WUHU216HW,2013-07-16 06:11:00,
2013-07-16 01:16:00,77.6,70.9,29.81,East,90,0.0,0.0,80,0.00,,,0.00,WUHU216HW,2013-07-16 06:16:00,
2013-07-16 01:21:00,77.4,71.1,29.81,East,90,0.0,0.0,81,0.00,,,0.00,WUHU216HW,2013-07-16 06:21:00,
2013-07-16 01:26:00,77.0,71.1,29.81,ESE,113,0.0,0.0,82,0.00,,,0.00,WUHU216HW,2013-07-16 06:26:00,
2013-07-16 01:31:00,76.9,70.9,29.81,ESE,113,0.0,0.0,82,0.00,,,0.00,WUHU216HW,2013-07-16 06:31:00,
2013-07-16 01:36:00,76.7,70.7,29.80,East,90,0.0,0.0,82,0.00,,,0.00,WUHU216HW,2013-07-16 06:36:00,
2013-07-16 01:41:00,76.7,70.7,29.80,ESE,113,0.0,0.0,82,0.00,,,0.00,WUHU216HW,2013-07-16 06:41:00,
2013-07-16 01:46:00,76.7,71.1,29.80,ESE,113,0.0,0.0,83,0.00,,,0.00,WUHU216HW,2013-07-16 06:46:00,
2013-07-16 01:51:00,76.3,70.8,29.80,ESE,113,0.0,0.0,83,0.00,,,0.00,WUHU216HW,2013-07-16 06:51:00,
2013-07-16 01:56:00,76.3,70.8,29.80,ESE,113,0.0,0.0,83,0.00,,,0.00,WUHU216HW,2013-07-16 06:56:00,
2013-07-16 02:01:00,76.3,70.8,29.80,ESE,113,0.0,0.0,83,0.00,,,0.00,WUHU216HW,2013-07-16 07:01:00,
2013-07-16 02:06:00,76.1,70.7,29.80,SE,135,0.2,0.4,83,0.00,,,0.00,WUHU216HW,2013-07-16 07:06:00,
2013-07-16 02:11:00,76.1,70.7,29.80,East,90,0.4,0.7,83,0.00,,,0.00,WUHU216HW,2013-07-16 07:11:00,
2013-07-16 02:16:00,77.0,71.8,29.80,East,90,0.0,0.7,84,0.00,,,0.00,WUHU216HW,2013-07-16 07:16:00,
2013-07-16 02:21:00,78.8,72.5,29.80,ESE,113,0.0,0.4,81,0.00,,,0.00,WUHU216HW,2013-07-16 07:21:00,
2013-07-16 02:26:00,78.7,72.0,29.79,ESE,113,0.0,0.4,80,0.00,,,0.00,WUHU216HW,2013-07-16 07:26:00,
2013-07-16 02:31:00,78.1,71.5,29.80,ESE,113,0.0,0.0,80,0.00,,,0.00,WUHU216HW,2013-07-16 07:31:00,
2013-07-16 02:36:00,77.4,70.7,29.80,ESE,113,0.7,0.7,80,0.00,,,0.00,WUHU216HW,2013-07-16 07:36:00,
2013-07-16 02:41:00,76.9,70.6,29.80,ESE,113,1.1,1.1,81,0.00,,,0.00,WUHU216HW,2013-07-16 07:41:00,
2013-07-16 02:46:00,76.5,70.6,29.80,SE,135,1.1,1.1,82,0.00,,,0.00,WUHU216HW,2013-07-16 07:46:00,
2013-07-16 02:51:00,76.1,70.3,29.79,ESE,113,0.7,1.1,82,0.00,,,0.00,WUHU216HW,2013-07-16 07:51:00,
2013-07-16 02:56:00,76.0,70.5,29.79,ESE,113,0.4,0.9,83,0.00,,,0.00,WUHU216HW,2013-07-16 07:56:00,
2013-07-16 03:01:00,75.6,70.1,29.79,SE,135,0.0,1.6,83,0.00,,,0.00,WUHU216HW,2013-07-16 08:01:00,
2013-07-16 03:06:00,75.4,70.3,29.80,SE,135,0.0,1.6,84,0.00,,,0.00,WUHU216HW,2013-07-16 08:06:00,
2013-07-16 03:11:00,75.2,70.1,29.80,ESE,113,0.0,0.0,84,0.00,,,0.00,WUHU216HW,2013-07-16 08:11:00,
2013-07-16 03:16:00,75.2,70.1,29.80,ESE,113,0.0,0.0,84,0.00,,,0.00,WUHU216HW,2013-07-16 08:16:00,
2013-07-16 03:21:00,75.2,70.1,29.80,SE,135,0.7,0.9,84,0.00,,,0.00,WUHU216HW,2013-07-16 08:21:00,
2013-07-16 03:26:00,75.1,69.9,29.80,SE,135,1.1,1.1,84,0.00,,,0.00,WUHU216HW,2013-07-16 08:26:00,
2013-07-16 03:31:00,75.1,69.9,29.80,SE,135,0.4,1.1,84,0.00,,,0.00,WUHU216HW,2013-07-16 08:31:00,
2013-07-16 03:36:00,75.1,70.3,29.80,SE,135,0.0,1.1,85,0.00,,,0.00,WUHU216HW,2013-07-16 08:36:00,
2013-07-16 03:41:00,74.9,70.1,29.80,SE,135,0.0,0.7,85,0.00,,,0.00,WUHU216HW,2013-07-16 08:41:00,
2013-07-16 03:46:00,74.9,70.1,29.81,SE,135,0.4,0.7,85,0.00,,,0.00,WUHU216HW,2013-07-16 08:46:00,
2013-07-16 03:51:00,74.7,69.9,29.80,SE,135,0.7,0.9,85,0.00,,,0.00,WUHU216HW,2013-07-16 08:51:00,
2013-07-16 03:56:00,74.7,69.9,29.80,SE,135,0.0,1.1,85,0.00,,,0.00,WUHU216HW,2013-07-16 08:56:00,
2013-07-16 04:01:00,74.5,69.8,29.80,SE,135,0.9,1.1,85,0.00,,,0.00,WUHU216HW,2013-07-16 09:01:00,
2013-07-16 04:06:00,74.5,69.8,29.80,SSE,158,0.9,1.1,85,0.00,,,0.00,WUHU216HW,2013-07-16 09:06:00,
2013-07-16 04:11:00,74.5,69.8,29.80,ESE,113,0.9,1.1,85,0.00,,,0.00,WUHU216HW,2013-07-16 09:11:00,
2013-07-16 04:16:00,74.3,69.6,29.81,ENE,68,0.2,1.1,85,0.00,,,0.00,WUHU216HW,2013-07-16 09:16:00,
2013-07-16 04:21:00,74.3,69.9,29.81,ESE,113,0.4,0.9,86,0.00,,,0.00,WUHU216HW,2013-07-16 09:21:00,
2013-07-16 04:26:00,74.2,69.8,29.81,ESE,113,0.0,0.9,86,0.00,,,0.00,WUHU216HW,2013-07-16 09:26:00,
2013-07-16 04:31:00,74.2,69.8,29.81,ESE,113,0.2,0.4,86,0.00,,,0.00,WUHU216HW,2013-07-16 09:31:00,
2013-07-16 04:36:00,74.0,69.6,29.81,SE,135,0.4,0.7,86,0.00,,,0.00,WUHU216HW,2013-07-16 09:36:00,
2013-07-16 04:41:00,74.0,69.6,29.82,SE,135,0.2,0.9,86,0.00,,,0.00,WUHU216HW,2013-07-16 09:41:00,
2013-07-16 04:46:00,74.0,69.6,29.82,East,90,0.4,0.9,86,0.00,,,0.00,WUHU216HW,2013-07-16 09:46:00,
2013-07-16 04:51:00,74.0,69.6,29.82,ESE,113,0.4,0.7,86,0.00,,,0.00,WUHU216HW,2013-07-16 09:51:00,
2013-07-16 04:56:00,74.0,69.6,29.82,East,90,0.4,0.4,86,0.00,,,0.00,WUHU216HW,2013-07-16 09:56:00,
2013-07-16 05:01:00,73.8,69.4,29.82,SE,135,1.1,1.1,86,0.00,,,0.00,WUHU216HW,2013-07-16 10:01:00,
2013-07-16 05:06:00,73.8,69.4,29.82,ESE,113,0.0,1.3,86,0.00,,,0.00,WUHU216HW,2013-07-16 10:06:00,
2013-07-16 05:11:00,73.8,69.8,29.82,ESE,113,0.4,1.3,87,0.00,,,0.00,WUHU216HW,2013-07-16 10:11:00,
2013-07-16 05:16:00,73.6,69.6,29.82,ESE,113,0.4,0.9,87,0.00,,,0.00,WUHU216HW,2013-07-16 10:16:00,
2013-07-16 05:21:00,73.6,69.6,29.82,ESE,113,0.7,0.9,87,0.00,,,0.00,WUHU216HW,2013-07-16 10:21:00,
2013-07-16 05:26:00,73.6,69.6,29.83,SE,135,0.4,0.9,87,0.00,,,0.00,WUHU216HW,2013-07-16 10:26:00,
2013-07-16 05:31:00,73.4,69.4,29.82,ESE,113,0.4,0.9,87,0.00,,,0.00,WUHU216HW,2013-07-16 10:31:00,
2013-07-16 05:36:00,73.4,69.4,29.83,ESE,113,0.0,0.7,87,0.00,,,0.00,WUHU216HW,2013-07-16 10:36:00,
2013-07-16 05:41:00,73.4,69.7,29.83,ESE,113,0.0,0.7,88,0.00,,,0.00,WUHU216HW,2013-07-16 10:41:00,
2013-07-16 05:46:00,73.4,70.0,29.84,ESE,113,0.4,0.7,89,0.00,,,0.00,WUHU216HW,2013-07-16 10:46:00,
2013-07-16 05:51:00,75.4,70.7,29.84,East,90,0.0,0.7,85,0.00,,,0.00,WUHU216HW,2013-07-16 10:51:00,
2013-07-16 05:56:00,76.3,71.1,29.84,ESE,113,0.4,0.7,84,0.00,,,0.00,WUHU216HW,2013-07-16 10:56:00,
2013-07-16 06:01:00,75.8,70.3,29.84,East,90,0.0,0.4,83,0.00,,,0.00,WUHU216HW,2013-07-16 11:01:00,
2013-07-16 06:06:00,75.1,69.9,29.84,ESE,113,0.0,0.7,84,0.00,,,0.00,WUHU216HW,2013-07-16 11:06:00,
2013-07-16 06:11:00,74.5,69.8,29.84,ESE,113,1.1,1.1,85,0.00,,,0.00,WUHU216HW,2013-07-16 11:11:00,
2013-07-16 06:16:00,74.2,69.4,29.84,ENE,68,0.2,1.1,85,0.00,,,0.00,WUHU216HW,2013-07-16 11:16:00,
2013-07-16 06:21:00,74.0,69.6,29.84,ESE,113,0.7,1.1,86,0.00,,,0.00,WUHU216HW,2013-07-16 11:21:00,
2013-07-16 06:26:00,73.8,69.8,29.84,SE,135,1.8,1.8,87,0.00,,,0.00,WUHU216HW,2013-07-16 11:26:00,
2013-07-16 06:31:00,73.8,69.8,29.84,SSE,158,1.3,1.8,87,0.00,,,0.00,WUHU216HW,2013-07-16 11:31:00,
2013-07-16 06:33:00,74.0,69.9,29.84,SE,135,1.1,1.1,87,0.00,,,0.00,WUHU216HW,2013-07-16 11:33:00,
2013-07-16 06:36:00,74.0,69.9,29.84,SE,135,1.1,1.6,87,0.00,,,0.00,WUHU216HW,2013-07-16 11:36:00,
2013-07-16 06:41:00,74.0,69.9,29.84,SE,135,1.1,1.1,87,0.00,,,0.00,WUHU216HW,2013-07-16 11:41:00,
2013-07-16 07:00:00,75.2,71.2,29.85,SSW,203,1.8,1.8,87,0.00,,,0.00,WUHU216HW,2013-07-16 12:00:00,
2013-07-16 07:05:00,76.9,72.0,29.85,SE,135,1.8,2.5,85,0.00,,,0.00,WUHU216HW,2013-07-16 12:05:00,
2013-07-16 07:10:00,78.3,72.4,29.85,SE,135,1.6,2.5,82,0.00,,,0.00,WUHU216HW,2013-07-16 12:10:00,
2013-07-16 07:15:00,77.9,71.6,29.85,SE,135,1.1,2.2,81,0.00,,,0.00,WUHU216HW,2013-07-16 12:15:00,
2013-07-16 07:20:00,77.6,71.6,29.85,SSE,158,1.8,2.2,82,0.00,,,0.00,WUHU216HW,2013-07-16 12:20:00,
2013-07-16 07:25:00,77.4,71.8,29.85,SE,135,2.0,2.2,83,0.00,,,0.00,WUHU216HW,2013-07-16 12:25:00,
2013-07-16 07:30:00,77.4,71.8,29.86,SSE,158,1.8,2.0,83,0.00,,,0.00,WUHU216HW,2013-07-16 12:30:00,
2013-07-16 07:35:00,77.6,72.0,29.86,SSW,203,1.1,2.5,83,0.00,,,0.00,WUHU216HW,2013-07-16 12:35:00,
2013-07-16 07:40:00,79.9,72.9,29.86,ESE,113,1.6,2.9,79,0.00,,,0.00,WUHU216HW,2013-07-16 12:40:00,
2013-07-16 07:45:00,80.6,73.2,29.86,SE,135,1.1,2.9,78,0.00,,,0.00,WUHU216HW,2013-07-16 12:45:00,
2013-07-16 07:50:00,80.1,72.6,29.86,ENE,68,0.7,2.5,78,0.00,,,0.00,WUHU216HW,2013-07-16 12:50:00,
2013-07-16 07:55:00,79.9,72.9,29.86,South,180,3.4,4.0,79,0.00,,,0.00,WUHU216HW,2013-07-16 12:55:00,
2013-07-16 08:00:00,80.1,73.1,29.86,SE,135,2.0,4.0,79,0.00,,,0.00,WUHU216HW,2013-07-16 13:00:00,
2013-07-16 08:05:00,80.3,73.3,29.86,SE,135,0.4,2.5,79,0.00,,,0.00,WUHU216HW,2013-07-16 13:05:00,
2013-07-16 08:10:00,81.5,74.4,29.86,SE,135,2.2,3.4,79,0.00,,,0.00,WUHU216HW,2013-07-16 13:10:00,
2013-07-16 08:15:00,84.6,74.6,29.87,South,180,2.0,3.4,72,0.00,,,0.00,WUHU216HW,2013-07-16 13:15:00,
2013-07-16 08:20:00,85.7,75.7,29.87,SSE,158,2.0,2.5,72,0.00,,,0.00,WUHU216HW,2013-07-16 13:20:00,
2013-07-16 08:25:00,85.1,75.2,29.87,SE,135,2.2,2.5,72,0.00,,,0.00,WUHU216HW,2013-07-16 13:25:00,
2013-07-16 08:30:00,84.6,74.6,29.87,SE,135,1.8,3.8,72,0.00,,,0.00,WUHU216HW,2013-07-16 13:30:00,
2013-07-16 08:35:00,84.6,74.6,29.87,WSW,248,2.2,3.8,72,0.00,,,0.00,WUHU216HW,2013-07-16 13:35:00,
2013-07-16 08:40:00,86.0,74.4,29.87,SW,225,2.7,3.4,68,0.00,,,0.00,WUHU216HW,2013-07-16 13:40:00,
2013-07-16 08:45:00,86.8,75.4,29.87,SSE,158,2.5,3.4,69,0.00,,,0.00,WUHU216HW,2013-07-16 13:45:00,
2013-07-16 08:50:00,86.2,75.4,29.88,SE,135,2.7,3.8,70,0.00,,,0.00,WUHU216HW,2013-07-16 13:50:00,
2013-07-16 08:55:00,85.7,74.9,29.87,South,180,1.3,3.8,70,0.00,,,0.00,WUHU216HW,2013-07-16 13:55:00,
2013-07-16 09:00:00,85.1,74.3,29.87,SSE,158,3.6,4.7,70,0.00,,,0.00,WUHU216HW,2013-07-16 14:00:00,
2013-07-16 09:05:00,87.8,74.6,29.87,SSW,203,2.2,4.7,65,0.00,,,0.00,WUHU216HW,2013-07-16 14:05:00,
2013-07-16 09:10:00,89.3,75.5,29.87,SE,135,2.9,6.0,64,0.00,,,0.00,WUHU216HW,2013-07-16 14:10:00,
2013-07-16 09:15:00,88.7,75.4,29.87,South,180,2.2,6.0,65,0.00,,,0.00,WUHU216HW,2013-07-16 14:15:00,
2013-07-16 09:20:00,87.8,75.1,29.87,ENE,68,1.8,4.0,66,0.00,,,0.00,WUHU216HW,2013-07-16 14:20:00,
2013-07-16 09:25:00,87.5,74.3,29.87,SE,135,3.8,5.4,65,0.00,,,0.00,WUHU216HW,2013-07-16 14:25:00,
2013-07-16 09:30:00,88.6,73.9,29.87,SSE,158,2.9,5.4,62,0.00,,,0.00,WUHU216HW,2013-07-16 14:30:00,
2013-07-16 09:35:00,88.7,74.5,29.87,WSW,248,2.7,2.9,63,0.00,,,0.00,WUHU216HW,2013-07-16 14:35:00,
2013-07-16 09:40:00,88.2,74.5,29.87,SE,135,2.7,3.1,64,0.00,,,0.00,WUHU216HW,2013-07-16 14:40:00,
2013-07-16 09:45:00,87.3,74.1,29.87,South,180,2.0,3.4,65,0.00,,,0.00,WUHU216HW,2013-07-16 14:45:00,
2013-07-16 09:50:00,87.8,74.6,29.87,SW,225,3.4,3.4,65,0.00,,,0.00,WUHU216HW,2013-07-16 14:50:00,
2013-07-16 09:55:00,90.0,74.4,29.87,SSW,203,2.0,3.4,60,0.00,,,0.00,WUHU216HW,2013-07-16 14:55:00,
2013-07-16 10:00:00,90.5,74.8,29.87,SSE,158,1.8,3.4,60,0.00,,,0.00,WUHU216HW,2013-07-16 15:00:00,
2013-07-16 10:05:00,89.5,74.3,29.87,South,180,3.6,3.6,61,0.00,,,0.00,WUHU216HW,2013-07-16 15:05:00,
2013-07-16 10:10:00,89.6,74.0,29.87,SE,135,1.1,3.6,60,0.00,,,0.00,WUHU216HW,2013-07-16 15:10:00,
2013-07-16 10:15:00,90.7,73.9,29.87,SE,135,3.4,5.6,58,0.00,,,0.00,WUHU216HW,2013-07-16 15:15:00,
2013-07-16 10:20:00,91.1,73.6,29.87,SW,225,1.1,5.6,57,0.00,,,0.00,WUHU216HW,2013-07-16 15:20:00,
2013-07-16 10:25:00,90.7,74.4,29.87,SE,135,3.4,3.4,59,0.00,,,0.00,WUHU216HW,2013-07-16 15:25:00,
2013-07-16 10:30:00,90.4,74.1,29.87,SW,225,1.6,3.4,59,0.00,,,0.00,WUHU216HW,2013-07-16 15:30:00,
2013-07-16 10:35:00,90.7,73.4,29.87,South,180,1.3,2.2,57,0.00,,,0.00,WUHU216HW,2013-07-16 15:35:00,
2013-07-16 10:40:00,91.3,73.8,29.86,NW,315,1.8,1.8,57,0.00,,,0.00,WUHU216HW,2013-07-16 15:40:00,
2013-07-16 10:45:00,92.2,74.7,29.86,ESE,113,3.1,3.6,57,0.00,,,0.00,WUHU216HW,2013-07-16 15:45:00,
2013-07-16 10:50:00,91.3,74.3,29.86,SW,225,1.8,3.6,58,0.00,,,0.00,WUHU216HW,2013-07-16 15:50:00,
2013-07-16 10:55:00,90.5,74.3,29.86,SW,225,2.0,2.2,59,0.00,,,0.00,WUHU216HW,2013-07-16 15:55:00,
2013-07-16 11:00:00,91.8,73.8,29.87,South,180,2.5,2.5,56,0.00,,,0.00,WUHU216HW,2013-07-16 16:00:00,
2013-07-16 11:03:00,92.5,73.9,29.86,SSE,158,1.8,1.8,55,0.00,,,0.00,WUHU216HW,2013-07-16 16:03:00,
2013-07-16 11:05:00,92.5,73.9,29.86,SSE,158,1.8,4.7,55,0.00,,,0.00,WUHU216HW,2013-07-16 16:05:00,
2013-07-16 11:10:00,92.5,73.9,29.86,SSE,158,1.8,4.7,55,0.00,,,0.00,WUHU216HW,2013-07-16 16:10:00,
2013-07-16 11:34:00,94.5,73.6,29.86,SSE,158,1.6,1.6,51,0.00,,,0.00,WUHU216HW,2013-07-16 16:34:00,
2013-07-16 11:39:00,94.1,74.3,29.86,SSE,158,2.2,3.4,53,0.00,,,0.00,WUHU216HW,2013-07-16 16:39:00,
2013-07-16 11:44:00,93.4,73.7,29.86,SE,135,2.2,3.4,53,0.00,,,0.00,WUHU216HW,2013-07-16 16:44:00,
2013-07-16 11:49:00,94.1,74.9,29.86,SW,225,2.5,3.4,54,0.00,,,0.00,WUHU216HW,2013-07-16 16:49:00,
2013-07-16 11:54:00,95.2,74.4,29.86,SW,225,2.5,2.7,51,0.00,,,0.00,WUHU216HW,2013-07-16 16:54:00,
2013-07-16 11:59:00,95.8,74.3,29.86,SSW,203,1.8,3.8,50,0.00,,,0.00,WUHU216HW,2013-07-16 16:59:00,
2013-07-16 12:04:00,95.9,73.8,29.86,SW,225,2.9,3.8,49,0.00,,,0.00,WUHU216HW,2013-07-16 17:04:00,
2013-07-16 12:09:00,94.9,74.0,29.86,West,270,1.8,4.7,51,0.00,,,0.00,WUHU216HW,2013-07-16 17:09:00,
2013-07-16 12:14:00,95.4,74.5,29.86,WSW,248,5.1,5.1,51,0.00,,,0.00,WUHU216HW,2013-07-16 17:14:00,
2013-07-16 12:19:00,96.1,74.6,29.86,SE,135,3.1,5.4,50,0.00,,,0.00,WUHU216HW,2013-07-16 17:19:00,
2013-07-16 12:24:00,96.5,74.3,29.85,ESE,113,3.4,5.4,49,0.00,,,0.00,WUHU216HW,2013-07-16 17:24:00,
2013-07-16 12:29:00,96.1,73.3,29.85,SSW,203,1.1,3.4,48,0.00,,,0.00,WUHU216HW,2013-07-16 17:29:00,
2013-07-16 12:34:00,96.1,74.6,29.85,South,180,3.4,3.4,50,0.00,,,0.00,WUHU216HW,2013-07-16 17:34:00,
2013-07-16 12:39:00,95.4,74.0,29.85,South,180,2.0,3.4,50,0.00,,,0.00,WUHU216HW,2013-07-16 17:39:00,
2013-07-16 12:44:00,95.6,74.1,29.85,SE,135,2.0,3.4,50,0.00,,,0.00,WUHU216HW,2013-07-16 17:44:00,
2013-07-16 12:49:00,95.4,74.5,29.85,SE,135,1.8,2.5,51,0.00,,,0.00,WUHU216HW,2013-07-16 17:49:00,
2013-07-16 12:54:00,95.6,74.1,29.85,WSW,248,2.5,3.4,50,0.00,,,0.00,WUHU216HW,2013-07-16 17:54:00,
2013-07-16 12:59:00,95.4,74.0,29.85,SSW,203,1.3,3.8,50,0.00,,,0.00,WUHU216HW,2013-07-16 17:59:00,
2013-07-16 13:04:00,95.4,73.3,29.85,ESE,113,1.6,5.6,49,0.00,,,0.00,WUHU216HW,2013-07-16 18:04:00,
2013-07-16 13:09:00,95.4,71.9,29.85,NNE,23,2.5,5.6,47,0.00,,,0.00,WUHU216HW,2013-07-16 18:09:00,
2013-07-16 13:14:00,95.4,72.6,29.85,West,270,1.3,4.0,48,0.00,,,0.00,WUHU216HW,2013-07-16 18:14:00,
2013-07-16 13:19:00,96.3,73.5,29.85,South,180,2.7,5.6,48,0.00,,,0.00,WUHU216HW,2013-07-16 18:19:00,
2013-07-16 13:24:00,97.9,73.5,29.85,East,90,2.2,5.6,46,0.00,,,0.00,WUHU216HW,2013-07-16 18:24:00,
2013-07-16 13:29:00,97.2,72.3,29.85,SE,135,1.8,3.8,45,0.00,,,0.00,WUHU216HW,2013-07-16 18:29:00,
2013-07-16 13:34:00,96.3,73.5,29.84,SSE,158,2.0,2.9,48,0.00,,,0.00,WUHU216HW,2013-07-16 18:34:00,
2013-07-16 13:39:00,96.3,73.5,29.84,SE,135,2.2,3.4,48,0.00,,,0.00,WUHU216HW,2013-07-16 18:39:00,
2013-07-16 13:44:00,95.8,72.3,29.84,WSW,248,1.6,3.4,47,0.00,,,0.00,WUHU216HW,2013-07-16 18:44:00,
2013-07-16 13:49:00,95.9,72.5,29.84,SE,135,2.5,3.4,47,0.00,,,0.00,WUHU216HW,2013-07-16 18:49:00,
2013-07-16 13:54:00,95.9,73.1,29.84,SW,225,2.5,3.4,48,0.00,,,0.00,WUHU216HW,2013-07-16 18:54:00,
2013-07-16 13:59:00,96.5,73.6,29.84,SSE,158,1.8,3.6,48,0.00,,,0.00,WUHU216HW,2013-07-16 18:59:00,
2013-07-16 14:04:00,96.8,72.5,29.84,SSW,203,4.5,4.5,46,0.00,,,0.00,WUHU216HW,2013-07-16 19:04:00,
2013-07-16 14:09:00,96.8,72.5,29.84,SE,135,2.0,4.7,46,0.00,,,0.00,WUHU216HW,2013-07-16 19:09:00,
2013-07-16 14:14:00,97.2,72.3,29.84,East,90,1.1,4.7,45,0.00,,,0.00,WUHU216HW,2013-07-16 19:14:00,
2013-07-16 14:19:00,97.9,72.9,29.84,SW,225,6.3,6.3,45,0.00,,,0.00,WUHU216HW,2013-07-16 19:19:00,
2013-07-16 14:24:00,97.9,72.2,29.83,SSW,203,4.0,6.3,44,0.00,,,0.00,WUHU216HW,2013-07-16 19:24:00,
2013-07-16 14:29:00,98.1,72.4,29.84,South,180,2.7,4.0,44,0.00,,,0.00,WUHU216HW,2013-07-16 19:29:00,
2013-07-16 14:34:00,98.5,72.7,29.83,SSE,158,1.3,3.1,44,0.00,,,0.00,WUHU216HW,2013-07-16 19:34:00,
2013-07-16 14:39:00,99.4,72.2,29.83,WSW,248,0.9,3.4,42,0.00,,,0.00,WUHU216HW,2013-07-16 19:39:00,
2013-07-16 14:44:00,99.2,72.0,29.83,SE,135,2.0,4.0,42,0.00,,,0.00,WUHU216HW,2013-07-16 19:44:00,
2013-07-16 14:49:00,99.2,72.0,29.83,SSW,203,1.3,4.0,42,0.00,,,0.00,WUHU216HW,2013-07-16 19:49:00,
2013-07-16 14:54:00,99.5,71.6,29.83,SW,225,5.8,5.8,41,0.00,,,0.00,WUHU216HW,2013-07-16 19:54:00,
2013-07-16 14:59:00,99.2,70.7,29.83,SE,135,1.1,5.8,40,0.00,,,0.00,WUHU216HW,2013-07-16 19:59:00,
2013-07-16 15:04:00,98.1,71.0,29.83,SSE,158,1.1,4.9,42,0.00,,,0.00,WUHU216HW,2013-07-16 20:04:00,
2013-07-16 15:09:00,97.0,70.7,29.83,SE,135,2.0,3.1,43,0.00,,,0.00,WUHU216HW,2013-07-16 20:09:00,
2013-07-16 15:14:00,96.5,71.6,29.83,WSW,248,1.8,4.0,45,0.00,,,0.00,WUHU216HW,2013-07-16 20:14:00,
2013-07-16 15:19:00,98.1,71.7,29.83,SE,135,1.1,4.7,43,0.00,,,0.00,WUHU216HW,2013-07-16 20:19:00,
2013-07-16 15:24:00,99.0,71.8,29.83,ESE,113,1.6,4.7,42,0.00,,,0.00,WUHU216HW,2013-07-16 20:24:00,
2013-07-16 15:29:00,99.5,72.4,29.83,WSW,248,3.1,4.7,42,0.00,,,0.00,WUHU216HW,2013-07-16 20:29:00,
2013-07-16 15:34:00,99.0,71.2,29.83,SSW,203,2.5,4.7,41,0.00,,,0.00,WUHU216HW,2013-07-16 20:34:00,
2013-07-16 15:39:00,99.2,72.0,29.82,SSE,158,3.4,3.4,42,0.00,,,0.00,WUHU216HW,2013-07-16 20:39:00,
2013-07-16 15:44:00,99.7,72.6,29.82,SSW,203,2.5,4.7,42,0.00,,,0.00,WUHU216HW,2013-07-16 20:44:00,
2013-07-16 15:49:00,99.5,71.6,29.82,SE,135,3.4,4.7,41,0.00,,,0.00,WUHU216HW,2013-07-16 20:49:00,
2013-07-16 15:54:00,98.5,71.4,29.82,NW,315,1.1,4.0,42,0.00,,,0.00,WUHU216HW,2013-07-16 20:54:00,
2013-07-16 15:59:00,99.0,71.2,29.82,SE,135,1.6,4.3,41,0.00,,,0.00,WUHU216HW,2013-07-16 20:59:00,
2013-07-16 16:04:00,99.4,71.6,29.82,SSE,158,5.6,5.6,41,0.00,,,0.00,WUHU216HW,2013-07-16 21:04:00,
2013-07-16 16:09:00,99.4,71.6,29.82,South,180,3.6,5.6,41,0.00,,,0.00,WUHU216HW,2013-07-16 21:09:00,
2013-07-16 16:14:00,99.2,71.4,29.82,SSW,203,1.3,5.1,41,0.00,,,0.00,WUHU216HW,2013-07-16 21:14:00,
2013-07-16 16:19:00,99.7,71.2,29.82,WSW,248,3.4,5.1,40,0.00,,,0.00,WUHU216HW,2013-07-16 21:19:00,
2013-07-16 16:24:00,99.9,71.4,29.82,SSE,158,3.4,3.4,40,0.00,,,0.00,WUHU216HW,2013-07-16 21:24:00,
2013-07-16 16:29:00,99.5,71.0,29.82,SSE,158,1.8,3.4,40,0.00,,,0.00,WUHU216HW,2013-07-16 21:29:00,
2013-07-16 16:34:00,99.4,71.6,29.82,SE,135,1.8,3.4,41,0.00,,,0.00,WUHU216HW,2013-07-16 21:34:00,
2013-07-16 16:39:00,99.4,71.6,29.82,South,180,0.4,3.4,41,0.00,,,0.00,WUHU216HW,2013-07-16 21:39:00,
2013-07-16 16:44:00,99.4,71.6,29.82,SE,135,3.6,3.6,41,0.00,,,0.00,WUHU216HW,2013-07-16 21:44:00,
2013-07-16 16:49:00,99.7,71.8,29.82,SE,135,2.2,4.0,41,0.00,,,0.00,WUHU216HW,2013-07-16 21:49:00,
2013-07-16 16:54:00,100.1,72.2,29.82,SSE,158,4.0,4.0,41,0.00,,,0.00,WUHU216HW,2013-07-16 21:54:00,
2013-07-16 16:59:00,99.9,71.4,29.82,South,180,2.9,4.0,40,0.00,,,0.00,WUHU216HW,2013-07-16 21:59:00,
2013-07-16 17:04:00,100.1,72.2,29.82,SW,225,4.7,4.7,41,0.00,,,0.00,WUHU216HW,2013-07-16 22:04:00,
2013-07-16 17:09:00,100.1,71.5,29.82,SE,135,2.9,4.7,40,0.00,,,0.00,WUHU216HW,2013-07-16 22:09:00,
2013-07-16 17:14:00,99.7,71.2,29.82,South,180,4.7,4.7,40,0.00,,,0.00,WUHU216HW,2013-07-16 22:14:00,
2013-07-16 17:19:00,99.4,71.6,29.82,South,180,3.6,4.7,41,0.00,,,0.00,WUHU216HW,2013-07-16 22:19:00,
2013-07-16 17:24:00,98.6,70.8,29.82,SE,135,2.9,3.6,41,0.00,,,0.00,WUHU216HW,2013-07-16 22:24:00,
2013-07-16 17:29:00,98.6,70.8,29.82,SE,135,2.5,3.1,41,0.00,,,0.00,WUHU216HW,2013-07-16 22:29:00,
2013-07-16 17:34:00,97.9,70.2,29.82,ESE,113,1.6,3.8,41,0.00,,,0.00,WUHU216HW,2013-07-16 22:34:00,
2013-07-16 17:39:00,98.6,70.8,29.81,ESE,113,3.1,3.8,41,0.00,,,0.00,WUHU216HW,2013-07-16 22:39:00,
2013-07-16 17:44:00,98.3,70.6,29.82,ESE,113,3.4,3.8,41,0.00,,,0.00,WUHU216HW,2013-07-16 22:44:00,
2013-07-16 17:49:00,98.1,70.4,29.82,SE,135,2.5,3.8,41,0.00,,,0.00,WUHU216HW,2013-07-16 22:49:00,
2013-07-16 17:54:00,98.8,70.4,29.81,WSW,248,2.0,5.8,40,0.00,,,0.00,WUHU216HW,2013-07-16 22:54:00,
2013-07-16 17:59:00,98.6,70.8,29.81,SSE,158,1.8,5.8,41,0.00,,,0.00,WUHU216HW,2013-07-16 22:59:00,
2013-07-16 18:04:00,98.3,71.2,29.81,ESE,113,1.8,4.0,42,0.00,,,0.00,WUHU216HW,2013-07-16 23:04:00,
2013-07-16 18:09:00,98.1,71.0,29.81,ESE,113,1.8,4.0,42,0.00,,,0.00,WUHU216HW,2013-07-16 23:09:00,
2013-07-16 18:14:00,97.9,70.9,29.81,WSW,248,2.5,3.1,42,0.00,,,0.00,WUHU216HW,2013-07-16 23:14:00,
2013-07-16 18:19:00,97.6,71.2,29.81,SSE,158,3.1,3.8,43,0.00,,,0.00,WUHU216HW,2013-07-16 23:19:00,
2013-07-16 18:24:00,97.2,70.9,29.81,South,180,3.8,5.4,43,0.00,,,0.00,WUHU216HW,2013-07-16 23:24:00,
2013-07-16 18:29:00,96.7,71.1,29.81,SE,135,4.0,5.6,44,0.00,,,0.00,WUHU216HW,2013-07-16 23:29:00,
2013-07-16 18:34:00,96.3,70.7,29.81,SSW,203,4.0,5.6,44,0.00,,,0.00,WUHU216HW,2013-07-16 23:34:00,
2013-07-16 18:39:00,96.1,71.3,29.81,SW,225,2.5,4.0,45,0.00,,,0.00,WUHU216HW,2013-07-16 23:39:00,
2013-07-16 18:44:00,95.4,71.3,29.81,SE,135,1.8,2.5,46,0.00,,,0.00,WUHU216HW,2013-07-16 23:44:00,
2013-07-16 18:49:00,95.4,71.3,29.81,SE,135,2.2,2.7,46,0.00,,,0.00,WUHU216HW,2013-07-16 23:49:00,
2013-07-16 18:54:00,95.4,71.3,29.81,SE,135,2.2,3.4,46,0.00,,,0.00,WUHU216HW,2013-07-16 23:54:00,
2013-07-16 18:59:00,95.2,71.8,29.81,SSE,158,1.1,3.4,47,0.00,,,0.00,WUHU216HW,2013-07-16 23:59:00,
2013-07-16 19:04:00,94.9,71.5,29.81,SE,135,1.1,2.9,47,0.00,,,0.00,WUHU216HW,2013-07-17 00:04:00,
2013-07-16 19:09:00,94.7,71.9,29.81,SSE,158,0.4,3.6,48,0.00,,,0.00,WUHU216HW,2013-07-17 00:09:00,
2013-07-16 19:14:00,94.3,70.9,29.81,South,180,2.9,3.6,47,0.00,,,0.00,WUHU216HW,2013-07-17 00:14:00,
2013-07-16 19:19:00,93.6,70.9,29.81,South,180,3.1,3.4,48,0.00,,,0.00,WUHU216HW,2013-07-17 00:19:00,
2013-07-16 19:24:00,93.6,71.6,29.81,ESE,113,1.1,3.4,49,0.00,,,0.00,WUHU216HW,2013-07-17 00:24:00,
2013-07-16 19:29:00,93.8,71.7,29.81,South,180,2.2,3.4,49,0.00,,,0.00,WUHU216HW,2013-07-17 00:29:00,
2013-07-16 19:34:00,94.0,71.9,29.81,SSW,203,0.0,2.5,49,0.00,,,0.00,WUHU216HW,2013-07-17 00:34:00,
2013-07-16 19:39:00,94.0,71.9,29.81,SE,135,0.7,2.0,49,0.00,,,0.00,WUHU216HW,2013-07-17 00:39:00,
2013-07-16 19:44:00,94.0,71.9,29.81,South,180,2.0,2.9,49,0.00,,,0.00,WUHU216HW,2013-07-17 00:44:00,
2013-07-16 19:49:00,93.8,71.7,29.81,South,180,0.9,2.9,49,0.00,,,0.00,WUHU216HW,2013-07-17 00:49:00,
2013-07-16 19:54:00,93.2,71.8,29.81,South,180,1.6,2.5,50,0.00,,,0.00,WUHU216HW,2013-07-17 00:54:00,
2013-07-16 19:59:00,92.9,72.1,29.82,SE,135,0.0,1.6,51,0.00,,,0.00,WUHU216HW,2013-07-17 00:59:00,
2013-07-16 20:04:00,92.7,71.9,29.82,SE,135,0.0,1.1,51,0.00,,,0.00,WUHU216HW,2013-07-17 01:04:00,
2013-07-16 20:09:00,92.5,71.7,29.82,SE,135,0.4,1.8,51,0.00,,,0.00,WUHU216HW,2013-07-17 01:09:00,
2013-07-16 20:14:00,92.2,71.4,29.81,SE,135,0.0,1.8,51,0.00,,,0.00,WUHU216HW,2013-07-17 01:14:00,
2013-07-16 20:19:00,91.8,71.1,29.82,SSE,158,0.2,1.1,51,0.00,,,0.00,WUHU216HW,2013-07-17 01:19:00,
2013-07-16 20:24:00,91.1,72.0,29.82,SSE,158,0.0,1.1,54,0.00,,,0.00,WUHU216HW,2013-07-17 01:24:00,
2013-07-16 20:29:00,91.1,72.0,29.82,South,180,0.0,0.9,54,0.00,,,0.00,WUHU216HW,2013-07-17 01:29:00,
2013-07-16 20:34:00,91.1,71.5,29.82,SSE,158,0.0,0.9,53,0.00,,,0.00,WUHU216HW,2013-07-17 01:34:00,
2013-07-16 20:39:00,90.7,71.2,29.82,South,180,0.4,0.7,53,0.00,,,0.00,WUHU216HW,2013-07-17 01:39:00,
2013-07-16 20:44:00,89.6,71.3,29.82,SE,135,1.1,1.1,55,0.00,,,0.00,WUHU216HW,2013-07-17 01:44:00,
2013-07-16 20:49:00,89.5,71.6,29.82,SE,135,0.0,1.1,56,0.00,,,0.00,WUHU216HW,2013-07-17 01:49:00,
2013-07-16 20:54:00,89.8,71.5,29.82,SE,135,0.0,0.7,55,0.00,,,0.00,WUHU216HW,2013-07-17 01:54:00,
2013-07-16 20:59:00,89.3,70.4,29.82,SE,135,0.0,0.0,54,0.00,,,0.00,WUHU216HW,2013-07-17 01:59:00,
2013-07-16 21:04:00,88.6,70.3,29.82,SE,135,0.0,0.0,55,0.00,,,0.00,WUHU216HW,2013-07-17 02:04:00,
2013-07-16 21:09:00,88.6,71.4,29.83,SE,135,0.0,0.0,57,0.00,,,0.00,WUHU216HW,2013-07-17 02:09:00,
2013-07-16 21:14:00,88.2,71.7,29.83,SE,135,0.0,0.0,58,0.00,,,0.00,WUHU216HW,2013-07-17 02:14:00,
2013-07-16 21:19:00,88.0,70.9,29.83,SE,135,0.0,0.0,57,0.00,,,0.00,WUHU216HW,2013-07-17 02:19:00,
2013-07-16 21:24:00,87.5,70.4,29.84,SE,135,0.0,0.0,57,0.00,,,0.00,WUHU216HW,2013-07-17 02:24:00,
2013-07-16 21:29:00,87.1,72.1,29.84,SE,135,0.0,0.0,61,0.00,,,0.00,WUHU216HW,2013-07-17 02:29:00,
2013-07-16 21:34:00,87.7,72.6,29.84,SE,135,0.0,0.0,61,0.00,,,0.00,WUHU216HW,2013-07-17 02:34:00,
2013-07-16 21:39:00,87.8,71.8,29.84,SE,135,0.0,0.0,59,0.00,,,0.00,WUHU216HW,2013-07-17 02:39:00,
2013-07-16 21:44:00,87.3,71.3,29.84,SE,135,0.0,0.0,59,0.00,,,0.00,WUHU216HW,2013-07-17 02:44:00,
2013-07-16 21:49:00,86.6,72.5,29.84,SE,135,0.0,0.0,63,0.00,,,0.00,WUHU216HW,2013-07-17 02:49:00,
2013-07-16 21:54:00,86.8,72.6,29.84,SE,135,0.0,0.0,63,0.00,,,0.00,WUHU216HW,2013-07-17 02:54:00,
2013-07-16 21:59:00,86.4,71.8,29.84,SE,135,0.0,0.0,62,0.00,,,0.00,WUHU216HW,2013-07-17 02:59:00,
2013-07-16 22:04:00,86.0,71.5,29.84,SE,135,0.0,0.0,62,0.00,,,0.00,WUHU216HW,2013-07-17 03:04:00,
2013-07-16 22:09:00,85.3,72.7,29.84,SE,135,0.0,0.0,66,0.00,,,0.00,WUHU216HW,2013-07-17 03:09:00,
2013-07-16 22:14:00,85.7,72.5,29.84,SE,135,0.0,0.0,65,0.00,,,0.00,WUHU216HW,2013-07-17 03:14:00,
2013-07-16 22:19:00,85.9,72.7,29.84,SE,135,0.0,0.0,65,0.00,,,0.00,WUHU216HW,2013-07-17 03:19:00,
2013-07-16 22:24:00,85.5,71.5,29.85,SE,135,0.0,0.0,63,0.00,,,0.00,WUHU216HW,2013-07-17 03:24:00,
2013-07-16 22:29:00,84.8,71.3,29.84,SE,135,0.0,0.0,64,0.00,,,0.00,WUHU216HW,2013-07-17 03:29:00,
2013-07-16 22:34:00,85.1,73.0,29.84,SE,135,0.0,0.0,67,0.00,,,0.00,WUHU216HW,2013-07-17 03:34:00,
2013-07-16 22:39:00,85.7,72.5,29.84,SE,135,0.0,0.0,65,0.00,,,0.00,WUHU216HW,2013-07-17 03:39:00,
2013-07-16 22:44:00,85.5,71.9,29.84,SE,135,0.0,0.0,64,0.00,,,0.00,WUHU216HW,2013-07-17 03:44:00,
2013-07-16 22:49:00,84.8,71.3,29.85,SE,135,0.0,0.0,64,0.00,,,0.00,WUHU216HW,2013-07-17 03:49:00,
2013-07-16 22:54:00,84.2,71.2,29.85,SE,135,0.0,0.0,65,0.00,,,0.00,WUHU216HW,2013-07-17 03:54:00,
2013-07-16 22:59:00,84.1,72.4,29.85,SE,135,0.0,0.0,68,0.00,,,0.00,WUHU216HW,2013-07-17 03:59:00,
2013-07-16 23:01:00,84.2,72.5,29.85,SE,135,0.0,0.0,68,0.00,,,0.00,WUHU216HW,2013-07-17 04:01:00,
2013-07-16 23:06:00,84.8,72.6,29.85,SE,135,0.0,0.0,67,0.00,,,0.00,WUHU216HW,2013-07-17 04:06:00,
2013-07-16 23:11:00,84.4,71.4,29.85,SE,135,0.0,0.0,65,0.00,,,0.00,WUHU216HW,2013-07-17 04:11:00,
2013-07-16 23:16:00,83.9,71.3,29.85,SE,135,0.0,0.0,66,0.00,,,0.00,WUHU216HW,2013-07-17 04:16:00,
2013-07-16 23:21:00,83.2,71.0,29.85,ESE,113,0.0,0.0,67,0.00,,,0.00,WUHU216HW,2013-07-17 04:21:00,
2013-07-16 23:26:00,82.8,72.5,29.85,ESE,113,0.0,0.0,71,0.00,,,0.00,WUHU216HW,2013-07-17 04:26:00,
2013-07-16 23:31:00,83.5,72.7,29.85,ESE,113,0.0,0.0,70,0.00,,,0.00,WUHU216HW,2013-07-17 04:31:00,
2013-07-16 23:36:00,83.5,71.4,29.85,ESE,113,0.0,0.0,67,0.00,,,0.00,WUHU216HW,2013-07-17 04:36:00,
2013-07-16 23:41:00,83.0,70.8,29.85,SE,135,0.4,0.4,67,0.00,,,0.00,WUHU216HW,2013-07-17 04:41:00,
2013-07-16 23:46:00,82.4,70.7,29.84,SE,135,0.0,0.9,68,0.00,,,0.00,WUHU216HW,2013-07-17 04:46:00,
2013-07-16 23:51:00,82.1,69.9,29.85,SE,135,0.0,0.9,67,0.00,,,0.00,WUHU216HW,2013-07-17 04:51:00,
2013-07-16 23:55:00,81.7,69.7,29.85,SE,135,0.0,0.4,67,0.00,,,0.00,WUHU216HW,2013-07-17 04:55:00,
2013-07-16 23:59:00,81.7,70.1,29.84,SE,135,0.0,0.0,68,0.00,,,0.00,WUHU216HW,2013-07-17 04:59:00,